Hourly Data Report for October 21, 2015

All times are specified in Local Standard Time (LST). Add 1 hour to adjust for Daylight Saving Time where and when it is observed.

BATHURST A
NEW BRUNSWICK

47°37'47.000" N
65°44'20.000" W
58.80 m
8100505
71574
ZBF

Download Data

Hourly Data (October 2015)
Hourly Data Report for October 21, 2015
Temp Definition
°C
Dew Point Temp Definition
°C
Rel Hum Definition
%
Wind Dir Definition
10's deg

Wind Spd Definition
km/h
Visibility Definition
km
Stn Press Definition
kPa
Hmdx Definition


Wind Chill Definition


Weather Definition


TIME
00:00 Legend Double Dagger -0.5 -5.3 70 23 7 24.1 100.93   -3 LegendNANA
01:00 Legend Double Dagger -1.0 -5.8 70 24 9 24.1 101.00   -4 LegendNANA
02:00 Legend Double Dagger -0.5 -6.3 65 22 10 24.1 101.06   -4 Clear
03:00 Legend Double Dagger -0.1 -6.1 64 24 13 24.1 101.08   -4 LegendNANA
04:00 Legend Double Dagger -0.2 -6.6 62 23 12 24.1 101.13   -4 LegendNANA
05:00 Legend Double Dagger -0.9 -6.9 64 23 9 24.1 101.20   -4 Clear
06:00 Legend Double Dagger -0.9 -6.9 64 23 11 24.1 101.31   -5 LegendNANA
07:00 Legend Double Dagger -1.4 -6.6 68 26 15 24.1 101.38   -6 LegendNANA
08:00 Legend Double Dagger 0.7 -6.0 61 26 21 24.1 101.47     Clear
09:00 Legend Double Dagger 2.3 -6.6 52 28 26 24.1 101.53     LegendNANA
10:00 Legend Double Dagger 3.5 -6.2 49 29 25 24.1 101.57     LegendNANA
11:00 Legend Double Dagger 4.7 -6.2 45 29 25 24.1 101.61     Mainly Clear
12:00 Legend Double Dagger 6.1 -5.6 43 27 23 24.1 101.62     LegendNANA
13:00 Legend Double Dagger 6.7 -6.0 40 29 25 24.1 101.59     LegendNANA
14:00 Legend Double Dagger 7.9 -5.6 38 29 13 24.1 101.63     Mainly Clear
15:00 Legend Double Dagger 7.8 -6.0 37 29 16 24.1 101.67     LegendNANA
16:00 Legend Double Dagger 7.3 -6.8 36 32 16 24.1 101.74     LegendNANA
17:00 Legend Double Dagger 6.4 -6.6 39 31 9 24.1 101.82     Mainly Clear
18:00 Legend Double Dagger 4.1 -5.4 50 28 9 24.1 101.94     LegendNANA
19:00 Legend Double Dagger 3.0 -5.4 54 30 9 24.1 102.02     LegendNANA
20:00 Legend Double Dagger 2.0 -5.4 58 29 8 24.1 102.09     Mainly Clear
21:00 Legend Double Dagger -1.2 -5.6 72 22 5 24.1 102.10   -3 LegendNANA
22:00 Legend Double Dagger -1.4 -5.3 75 25 8 24.1 102.14   -4 LegendNANA
23:00 Legend Double Dagger -2.5 -5.0 83 25 8 24.1 102.13   -6 Mainly Clear

Notes on Data Quality.

Legend

  • E = Estimated
  • M = Missing
  • NA = Not Available
  • ‡ = Partner data that is not subject to review by the National Climate Archives
Date modified: